Location: Krasnoyarskiy Pitomnik
(51.1333°N, 71.6167°E)
Time: 09:08:54
(UTC+00:00)

ISS - Pass Details

Date: 05 March 2024
Orbit: 413 x 419 km, 51.6° (Epoch: 13 April)

Event Time Altitude Azimuth Distance (km) Brightness Sun altitude
Exits shadow 22:56:26 14° 116° (ESE) 1,301 -0.9 -26.9°
Drops below altitude 10° 22:56:59 10° 115° (ESE) 1,517 -0.5 -26.8°
Sets 22:59:05 0° 113° (ESE) 2,380 0.6 -26.5°
